QPF
0.00 0.00 0.00 0.00 0.00 0.00 0.00 0.00 0.00 0.00 0.00 0.00 0.00 0.00 0.00 0.00 0.00 0.00 0.00 0.00 0.00 0.00 0.00 0.00 0.00 0.00 0.00 0.00 0.00 0.00 0.00 0.00 0.00 0.00 0.00 0.00 0.00 0.00 0.00 0.00 0.00 0.00 0.00 0.00 0.00 0.00 0.00
0.00 0.00 0.00 0.00 0.00 0.00 0.00 0.00 0.00 0.00 0.00 0.00 0.00 0.00 0.00 0.00 0.00 0.00 0.00 0.00 0.00 0.00 0.00 0.00 0.00 0.00 0.00 0.00 0.00 0.00 0.00 0.00 0.00 0.00 0.00 0.00 0.00 0.00 0.00 0.00 0.00 0.00 0.00 0.00 0.00 0.00 0.00
0.00 0.00 0.00 0.00 0.00 0.00 0.00 0.00 0.00 0.00 0.00 0.00 0.00 0.00 0.00 0.00 0.00 0.00 0.00 0.00 0.00 0.00 0.00 0.00 0.00 0.00 0.00 0.00 0.00 0.00 0.00 0.00 0.00 0.00 0.00 0.00 0.00 0.00 0.00 0.00 0.00 0.00 0.00 0.00 0.00 0.00 0.00
0.00 0.00 0.00 0.00 0.00 0.00 0.00 0.00 0.00 0.00 0.00 0.00 0.00 0.00 0.00 0.00 0.00 0.00 0.00 0.00 0.00 0.00 0.00 0.00 0.00 0.00 0.00 0.00 0.00 0.00 0.00 0.00 0.00 0.00 0.00 0.00 0.00 0.00 0.00 0.00 0.00 0.00 0.00 0.00 0.00 0.00 0.00
0.00 0.00 0.00 0.00 0.00 0.00 0.00 0.00 0.00 0.00 0.00 0.00 0.00 0.00 0.00 0.00 0.00 0.00 0.00 0.00 0.00 0.00 0.00 0.00 0.00 0.00 0.00 0.00 0.00 0.00 0.00 0.00 0.00 0.00 0.00 0.00 0.00 0.00 0.00 0.00 0.00 0.00 0.00 0.00 0.00 0.00 0.00
0.00 0.00 0.01 0.00 0.00 0.00 0.00 0.00 0.00 0.00 0.00 0.00 0.00 0.00 0.00 0.00 0.00 0.00 0.00 0.00 0.00 0.00 0.00 0.00 0.00 0.00 0.00 0.00 0.00 0.00 0.00 0.00 0.00 0.00 0.00 0.00 0.00 0.00 0.00 0.00 0.00 0.00 0.00 0.00 0.00 0.00 0.00
0.00 0.00 0.00 0.00 0.00 0.00 0.00 0.00 0.00 0.00 0.00 0.00 0.00 0.00 0.00 0.00 0.00 0.00 0.00 0.00 0.00 0.00 0.00 0.00 0.00 0.00 0.00 0.00 0.00 0.00 0.00 0.00 0.00 0.00 0.00 0.00 0.00 0.00 0.00 0.00 0.00 0.00 0.00 0.00 0.00 0.00 0.00
0.00 0.00 0.00 0.00 0.00 0.00 0.00 0.00 0.00 0.00 0.00 0.00 0.00 0.00 0.00 0.00 0.00 0.00 0.00 0.00 0.00 0.00 0.00 0.00 0.00 0.00 0.00 0.00 0.00 0.00 0.00 0.00 0.00 0.00 0.00 0.00 0.00 0.00 0.00 0.00 0.00 0.00 0.00 0.00 0.00 0.00 0.00
0.00 0.00 0.00 0.00 0.00 0.00 0.00 0.00 0.00 0.00 0.00 0.00 0.00 0.00 0.00 0.00 0.00 0.00 0.00 0.00 0.00 0.00 0.00 0.00 0.00 0.00 0.00 0.00 0.00 0.00 0.00 0.00 0.00 0.00 0.00 0.00 0.00 0.00 0.00 0.00 0.00 0.00 0.00 0.00 0.00 0.00 0.00
0.00 0.00 0.00 0.00 0.00 0.00 0.00 0.00 0.00 0.00 0.00 0.00 0.00 0.00 0.00 0.00 0.00 0.00 0.00 0.00 0.00 0.00 0.00 0.00 0.00 0.00 0.00 0.00 0.00 0.00 0.00 0.00 0.00 0.00 0.00 0.00 0.00 0.00 0.00 0.00 0.00 0.00 0.00 0.00 0.00 0.00 0.00
0.00 0.00 0.00 0.00 0.00 0.00 0.00 0.00 0.00 0.00 0.00 0.00 0.00 0.00 0.00 0.00 0.00 0.00 0.00 0.00 0.00 0.00 0.00 0.00 0.00 0.00 0.00 0.00 0.00 0.00 0.00 0.00 0.00 0.00 0.00 0.00 0.00 0.00 0.00 0.00 0.00 0.00 0.00 0.00 0.00 0.00 0.00
0.01 0.00 0.00 0.00 0.00 0.00 0.00 0.00 0.00 0.00 0.00 0.00 0.00 0.01 0.00 0.00 0.00 0.00 0.00 0.00 0.00 0.00 0.00 0.00 0.00 0.00 0.00 0.00 0.00 0.00 0.00 0.00 0.00 0.00 0.00 0.00 0.00 0.00 0.00 0.00 0.00 0.00 0.00 0.00 0.00 0.00 0.00
0.01 0.00 0.00 0.00 0.00 0.00 0.00 0.00 0.01 0.00 0.00 0.00 0.00 0.00 0.00 0.00 0.00 0.00 0.00 0.00 0.00 0.00 0.00 0.00 0.00 0.00 0.00 0.00 0.00 0.00 0.00 0.00 0.00 0.00 0.00 0.00 0.00 0.00 0.00 0.00 0.00 0.00 0.00 0.00 0.00 0.00 0.00
0.00 0.00 0.00 0.00 0.00 0.00 0.00 0.00 0.00 0.00 0.00 0.00 0.00 0.00 0.00 0.00 0.00 0.00 0.00 0.00 0.00 0.00 0.00 0.00 0.00 0.00 0.00 0.00 0.00 0.00 0.00 0.00 0.00 0.00 0.00 0.00 0.00 0.00 0.00 0.00 0.00 0.00 0.00 0.00 0.00 0.00 0.00
0.00 0.00 0.00 0.00 0.00 0.00 0.00 0.00 0.01 0.00 0.00 0.00 0.00 0.00 0.00 0.00 0.00 0.00 0.00 0.00 0.00 0.00 0.00 0.00 0.00 0.00 0.00 0.00 0.00 0.00 0.00 0.00 0.00 0.00 0.00 0.00 0.00 0.00 0.00 0.00 0.00 0.00 0.00 0.00 0.00 0.00 0.00
0.00 0.00 0.00 0.00 0.00 0.00 0.00 0.01 0.00 0.00 0.00 0.00 0.00 0.00 0.00 0.00 0.00 0.00 0.00 0.00 0.00 0.00 0.00 0.00 0.00 0.00 0.00 0.00 0.00 0.00 0.00 0.00 0.00 0.00 0.00 0.00 0.00 0.00 0.00 0.00 0.00 0.00 0.00 0.00 0.00 0.00 0.00
0.00 0.01 0.00 0.00 0.00 0.00 0.00 0.01 0.00 0.00 0.00 0.00 0.00 0.00 0.00 0.00 0.00 0.00 0.00 0.00 0.00 0.00 0.00 0.00 0.00 0.00 0.00 0.00 0.00 0.00 0.00 0.00 0.00 0.00 0.00 0.00 0.00 0.00 0.00 0.00 0.00 0.00 0.00 0.00 0.00 0.00 0.00
0.00 0.00 0.01 0.01 0.00 0.00 0.00 0.00 0.00 0.00 0.00 0.00 0.00 0.00 0.00 0.00 0.00 0.00 0.00 0.00 0.00 0.00 0.00 0.00 0.00 0.00 0.00 0.00 0.00 0.00 0.00 0.00 0.00 0.00 0.00 0.00 0.00 0.00 0.00 0.00 0.00 0.00 0.00 0.00 0.00 0.00 0.00
0.00 0.01 0.01 0.01 0.00 0.00 0.00 0.00 0.00 0.00 0.00 0.00 0.00 0.00 0.00 0.00 0.00 0.00 0.00 0.00 0.00 0.00 0.00 0.00 0.00 0.00 0.00 0.00 0.00 0.00 0.00 0.00 0.00 0.00 0.00 0.00 0.00 0.00 0.00 0.00 0.00 0.00 0.00 0.00 0.00 0.00 0.00
0.01 0.00 0.00 0.00 0.00 0.00 0.00 0.00 0.00 0.00 0.00 0.00 0.00 0.00 0.00 0.00 0.00 0.00 0.00 0.00 0.00 0.00 0.00 0.00 0.00 0.00 0.00 0.00 0.00 0.00 0.00 0.00 0.00 0.00 0.00 0.00 0.00 0.00 0.00 0.00 0.00 0.00 0.00 0.00 0.00 0.00 0.00
0.01 0.00 0.01 0.00 0.00 0.00 0.00 0.00 0.00 0.00 0.00 0.00 0.00 0.00 0.00 0.00 0.00 0.00 0.00 0.00 0.00 0.00 0.00 0.00 0.00 0.00 0.00 0.00 0.00 0.00 0.00 0.00 0.00 0.00 0.00 0.00 0.00 0.00 0.00 0.00 0.00 0.00 0.00 0.00 0.00 0.00 0.00
0.01 0.01 0.01 0.00 0.00 0.01 0.00 0.00 0.00 0.00 0.00 0.00 0.00 0.00 0.00 0.00 0.00 0.00 0.00 0.00 0.00 0.00 0.00 0.00 0.00 0.00 0.00 0.00 0.00 0.00 0.00 0.00 0.00 0.00 0.00 0.00 0.00 0.00 0.00 0.00 0.00 0.00 0.00 0.00 0.00 0.00 0.00
0.01 0.01 0.01 0.01 0.00 0.00 0.00 0.00 0.00 0.00 0.00 0.00 0.00 0.00 0.00 0.00 0.00 0.00 0.00 0.00 0.00 0.00 0.00 0.00 0.00 0.00 0.00 0.00 0.00 0.00 0.00 0.00 0.00 0.00 0.00 0.00 0.00 0.00 0.00 0.00 0.00 0.00 0.00 0.00 0.00 0.00 0.00
0.00 0.00 0.01 0.01 0.01 0.00 0.00 0.00 0.01 0.00 0.00 0.00 0.00 0.00 0.00 0.00 0.00 0.00 0.00 0.00 0.00 0.00 0.00 0.00 0.00 0.00 0.00 0.00 0.00 0.00 0.00 0.00 0.00 0.00 0.00 0.00 0.00 0.00 0.00 0.00 0.00 0.00 0.00 0.00 0.00 0.00 0.00
0.00 0.00 0.01 0.00 0.00 0.00 0.00 0.00 0.00 0.00 0.00 0.00 0.00 0.00 0.00 0.00 0.00 0.00 0.00 0.00 0.00 0.00 0.00 0.00 0.00 0.00 0.00 0.00 0.00 0.00 0.00 0.00 0.00 0.00 0.00 0.00 0.00 0.00 0.00 0.00 0.00 0.00 0.00 0.00 0.00 0.00 0.00
0.00 0.00 0.00 0.00 0.00 0.01 0.00 0.00 0.00 0.00 0.00 0.00 0.00 0.00 0.00 0.00 0.00 0.00 0.00 0.00 0.00 0.00 0.00 0.00 0.00 0.00 0.00 0.00 0.00 0.00 0.00 0.00 0.00 0.00 0.00 0.00 0.00 0.00 0.00 0.00 0.00 0.00 0.00 0.00 0.00 0.00 0.00
0.00 0.00 0.00 0.00 0.00 0.00 0.00 0.00 0.00 0.00 0.00 0.00 0.00 0.00 0.00 0.00 0.00 0.00 0.00 0.00 0.00 0.00 0.00 0.00 0.00 0.00 0.00 0.00 0.00 0.00 0.00 0.00 0.00 0.00 0.00 0.00 0.00 0.00 0.00 0.00 0.00 0.00 0.00 0.00 0.00 0.00 0.00
0.00 0.00 0.00 0.00 0.00 0.00 0.00 0.00 0.01 0.00 0.00 0.00 0.00 0.00 0.00 0.00 0.00 0.00 0.00 0.00 0.00 0.00 0.00 0.00 0.03 0.01 0.00 0.01 0.00 0.00 0.00 0.00 0.00 0.00 0.00 0.00 0.00 0.00 0.00 0.00 0.00 0.00 0.00 0.00 0.00 0.00 0.00
0.00 0.00 0.00 0.00 0.00 0.00 0.00 0.00 0.00 0.00 0.00 0.00 0.00 0.00 0.00 0.00 0.00 0.00 0.00 0.00 0.00 0.00 0.00 0.00 0.01 0.00 0.00 0.05 0.01 0.03 0.01 0.00 0.00 0.00 0.00 0.00 0.00 0.00 0.00 0.00 0.00 0.00 0.00 0.00 0.00 0.00 0.00
MSLP
1021.05 1020.69 1020.36 1020.03 1019.69 1019.38 1019.03 1018.72 1018.40 1018.03 1017.65 1017.28 1016.96 1016.67 1016.35 1015.96 1015.57 1015.32 1015.02 1014.67 1014.40 1014.17 1013.95 1013.63 1013.31 1012.97 1011.93 1009.60 1006.60 1006.54 1006.66 1006.52 1006.37 1006.24 1005.43 1004.53 1003.76 1003.31 1002.87 1003.15 1003.15 1002.87 1003.13 1003.19 1003.16 1003.46 1003.62
1021.09 1020.73 1020.34 1020.01 1019.69 1019.35 1019.02 1018.68 1018.36 1018.03 1017.68 1017.32 1016.96 1016.56 1016.26 1015.92 1015.50 1015.14 1014.77 1014.50 1014.29 1014.03 1013.73 1013.48 1013.23 1012.89 1011.08 1007.82 1006.38 1006.47 1006.48 1006.26 1005.70 1005.48 1004.90 1004.46 1003.86 1003.87 1003.27 1003.24 1003.19 1003.43 1003.25 1002.99 1003.06 1003.22 1003.41
1021.08 1020.70 1020.30 1019.91 1019.60 1019.33 1018.99 1018.66 1018.34 1017.99 1017.63 1017.30 1016.95 1016.54 1016.13 1015.83 1015.41 1015.02 1014.66 1014.28 1013.94 1013.59 1013.28 1013.22 1013.04 1012.17 1009.74 1006.62 1006.34 1006.31 1006.06 1005.60 1005.54 1005.03 1004.58 1004.57 1004.32 1003.82 1003.53 1003.30 1003.63 1003.40 1002.87 1002.83 1003.01 1003.24 1003.41
1020.98 1020.60 1020.25 1019.85 1019.48 1019.18 1018.91 1018.66 1018.29 1017.97 1017.63 1017.24 1016.84 1016.43 1016.04 1015.71 1015.29 1014.88 1014.49 1014.11 1013.66 1013.09 1012.96 1012.99 1012.74 1011.32 1007.57 1006.52 1006.48 1006.23 1005.85 1005.72 1005.83 1005.48 1004.89 1005.01 1004.79 1004.02 1003.64 1003.66 1003.24 1002.89 1002.76 1002.22 1002.90 1003.32 1003.65
1020.81 1020.50 1020.20 1019.81 1019.40 1019.01 1018.67 1018.44 1018.19 1017.86 1017.54 1017.16 1016.74 1016.32 1015.95 1015.61 1015.15 1014.71 1014.26 1013.75 1013.26 1012.87 1012.83 1012.72 1011.82 1010.14 1006.39 1006.89 1006.12 1005.37 1005.44 1005.02 1005.29 1005.28 1005.26 1005.30 1004.78 1003.70 1003.49 1003.07 1002.68 1002.54 1001.77 1002.43 1002.70 1003.23 1003.36
1020.77 1020.50 1020.20 1019.79 1019.37 1018.97 1018.58 1018.22 1017.92 1017.68 1017.38 1017.01 1016.61 1016.21 1015.85 1015.47 1015.05 1014.62 1014.04 1013.43 1013.02 1012.81 1012.40 1011.77 1010.84 1009.46 1006.26 1005.14 1005.21 1005.23 1005.35 1005.15 1004.84 1004.83 1004.93 1004.79 1004.07 1003.15 1002.70 1002.32 1001.52 1001.91 1002.11 1002.49 1002.45 1002.97 1003.27
1020.75 1020.45 1020.14 1019.71 1019.29 1018.88 1018.51 1018.15 1017.77 1017.40 1017.14 1016.81 1016.42 1016.08 1015.70 1015.30 1014.93 1014.67 1013.54 1012.35 1012.26 1011.34 1010.24 1007.65 1007.11 1006.32 1005.47 1005.28 1005.43 1004.94 1004.97 1004.80 1004.56 1004.39 1003.78 1004.10 1003.33 1002.36 1001.92 1002.36 1002.65 1002.71 1002.74 1002.42 1002.64 1003.07 1002.91
1020.74 1020.38 1020.01 1019.60 1019.18 1018.76 1018.39 1018.01 1017.62 1017.25 1016.86 1016.55 1016.24 1015.90 1015.51 1015.10 1014.82 1014.66 1014.20 1011.34 1009.88 1010.12 1007.81 1006.88 1006.70 1006.41 1005.91 1005.61 1004.48 1004.49 1004.69 1004.17 1004.10 1003.50 1003.38 1003.71 1002.64 1002.12 1002.79 1003.21 1002.99 1002.85 1002.55 1002.20 1002.65 1002.85 1002.74
1020.71 1020.30 1019.84 1019.41 1018.99 1018.55 1018.18 1017.83 1017.43 1017.03 1016.65 1016.27 1015.99 1015.64 1015.27 1014.93 1014.52 1014.15 1012.22 1010.41 1010.15 1009.81 1007.44 1005.93 1005.53 1005.22 1004.93 1005.24 1003.69 1003.83 1004.24 1003.64 1003.37 1002.98 1003.06 1002.26 1002.10 1002.38 1003.05 1003.09 1002.82 1002.39 1002.32 1002.56 1002.55 1002.49 1002.32
1020.57 1020.14 1019.72 1019.26 1018.78 1018.32 1017.90 1017.48 1017.08 1016.68 1016.31 1015.97 1015.62 1015.33 1015.03 1014.67 1014.60 1012.43 1011.01 1010.26 1010.24 1010.00 1006.71 1004.74 1004.66 1003.98 1004.67 1004.20 1003.49 1003.29 1003.68 1003.51 1003.18 1002.73 1002.70 1002.04 1001.62 1002.41 1002.76 1002.52 1002.66 1001.98 1002.75 1002.95 1002.66 1002.25 1001.09
1020.46 1019.98 1019.55 1019.08 1018.62 1018.14 1017.65 1017.19 1016.73 1016.29 1015.89 1015.57 1015.24 1014.94 1014.75 1014.76 1013.33 1011.62 1010.50 1010.38 1009.96 1009.48 1005.04 1003.62 1003.74 1004.09 1003.53 1003.17 1002.71 1003.61 1003.56 1003.44 1002.76 1002.41 1002.82 1001.68 1001.89 1002.32 1002.17 1002.17 1002.44 1002.42 1002.89 1002.74 1002.52 1002.08 1001.38
1020.32 1019.78 1019.33 1018.89 1018.41 1017.93 1017.43 1016.91 1016.40 1015.92 1015.47 1015.08 1014.71 1014.47 1014.39 1013.81 1013.19 1011.09 1010.87 1010.39 1009.52 1007.34 1002.94 1002.67 1002.79 1003.04 1003.06 1002.71 1002.41 1003.25 1003.69 1003.58 1002.81 1002.70 1002.80 1001.63 1002.12 1002.03 1001.85 1002.08 1002.77 1002.69 1002.86 1002.53 1002.24 1001.68 1000.68
1020.15 1019.60 1019.13 1018.68 1018.22 1017.73 1017.18 1016.60 1016.04 1015.50 1015.00 1014.53 1014.05 1013.67 1013.69 1012.13 1010.52 1010.88 1010.68 1009.31 1007.01 1003.79 1002.36 1001.90 1001.57 1001.88 1001.62 1001.74 1001.97 1002.32 1002.57 1002.67 1002.13 1002.16 1001.80 1001.95 1002.08 1002.05 1002.09 1001.79 1002.38 1002.68 1002.10 1001.09 1000.73 1000.22 999.52
1019.98 1019.45 1018.93 1018.48 1018.01 1017.46 1016.85 1016.22 1015.59 1015.01 1014.46 1013.90 1013.39 1012.98 1012.72 1011.61 1011.23 1011.04 1009.79 1007.59 1004.28 1002.17 1001.12 1001.16 1000.82 1001.04 1000.72 1000.93 1001.13 1001.56 1001.81 1001.65 1001.82 1001.20 1000.68 1001.08 1001.25 1001.49 1001.76 1001.44 1001.35 1001.72 1001.20 1000.58 999.75 999.42 999.11
1019.79 1019.34 1018.82 1018.33 1017.81 1017.20 1016.54 1015.88 1015.20 1014.53 1013.87 1013.26 1012.85 1011.65 1011.31 1010.79 1011.06 1010.87 1008.37 1005.48 1002.60 1001.83 1001.72 1000.76 1000.72 1000.42 1000.22 1000.55 1000.67 1001.12 1001.06 1000.78 1001.02 1000.94 1000.10 1000.21 1000.21 1000.54 1001.13 1001.46 1001.31 1000.95 1001.26 1000.66 1000.11 1000.15 1000.05
1019.66 1019.17 1018.66 1018.15 1017.58 1016.97 1016.33 1015.63 1014.89 1014.11 1013.31 1012.61 1011.26 1009.98 1009.82 1010.52 1010.70 1009.81 1007.08 1004.05 1003.33 1003.10 1002.20 1001.26 999.82 999.81 999.66 1000.01 1000.30 1000.27 1000.46 1000.35 1000.47 1000.92 1000.37 1000.39 1000.04 1000.64 1000.85 1001.43 1001.25 1001.16 1000.64 1000.67 1000.39 999.80 999.32
1019.60 1019.06 1018.55 1018.01 1017.40 1016.80 1016.16 1015.41 1014.66 1013.81 1012.94 1012.30 1010.61 1008.39 1009.97 1010.30 1010.33 1007.96 1005.32 1003.61 1003.52 1003.08 1002.76 1001.38 1000.48 999.87 999.06 999.37 999.69 999.70 999.72 999.98 1000.15 1000.57 1000.85 1000.56 1000.13 1000.31 1000.64 1000.46 1000.11 1001.05 1000.65 1000.43 999.73 999.66 999.08
1019.50 1019.00 1018.48 1017.90 1017.27 1016.67 1015.99 1015.24 1014.55 1013.72 1012.67 1012.03 1009.39 1007.55 1009.86 1009.95 1008.09 1005.97 1004.38 1003.98 1004.22 1002.88 1002.44 1001.79 1001.36 1000.28 999.37 999.32 999.32 999.25 999.20 999.53 1000.02 1000.05 1000.63 1000.70 1000.10 999.39 999.94 999.75 999.90 999.50 999.51 999.40 999.35 999.26 999.23
1019.44 1018.92 1018.40 1017.79 1017.15 1016.51 1015.82 1015.12 1014.43 1013.75 1013.23 1011.89 1008.49 1008.06 1009.24 1008.98 1006.05 1005.01 1004.33 1003.99 1003.71 1002.90 1002.11 1001.51 1000.89 1000.58 1000.24 999.51 999.44 999.29 999.37 999.79 1000.45 1000.17 1000.30 1000.58 1000.37 999.58 999.26 999.56 1000.21 999.78 999.59 999.58 999.18 998.80 998.91
1019.35 1018.87 1018.29 1017.65 1017.01 1016.35 1015.71 1015.03 1014.31 1013.62 1013.10 1012.34 1008.89 1006.69 1007.59 1007.55 1006.15 1004.65 1003.89 1003.36 1002.99 1002.87 1002.39 1001.90 1001.26 1000.92 1000.33 999.89 999.90 999.52 999.59 1000.40 1000.65 1000.38 1000.58 1000.59 999.82 999.27 998.48 998.55 998.90 999.39 999.26 999.16 998.99 998.46 997.91
1019.23 1018.70 1018.14 1017.54 1016.95 1016.31 1015.67 1014.99 1014.25 1013.46 1012.88 1012.24 1008.36 1006.37 1006.14 1005.07 1004.84 1004.32 1004.01 1003.57 1002.76 1002.23 1002.42 1001.99 1001.00 1000.96 1000.33 999.77 999.66 999.43 999.55 1000.35 1000.88 1001.02 1000.81 1000.46 999.65 999.36 999.15 998.63 998.32 998.26 998.42 998.50 998.64 998.35 997.88
1019.11 1018.57 1018.07 1017.52 1016.95 1016.38 1015.75 1015.06 1014.32 1013.38 1012.27 1010.82 1008.77 1007.36 1006.39 1005.22 1004.92 1004.30 1003.92 1003.05 1002.70 1002.32 1002.33 1001.49 1001.43 1000.99 1000.80 1000.28 999.86 999.59 999.67 999.66 999.64 1000.75 1000.38 1000.00 999.32 999.21 998.97 998.75 998.55 998.38 998.20 997.90 998.18 998.25 997.99
1019.10 1018.59 1018.05 1017.55 1017.05 1016.48 1015.87 1015.27 1014.61 1013.80 1012.17 1010.54 1010.15 1009.05 1007.85 1005.61 1004.40 1003.93 1003.13 1003.20 1002.89 1003.10 1002.71 1002.54 1002.19 1001.69 1001.40 1001.36 1001.76 1001.54 1000.76 1000.46 1000.01 999.92 999.88 999.64 999.46 999.30 998.61 998.34 998.06 997.83 997.73 997.54 997.62 997.64 997.71
1019.06 1018.56 1018.11 1017.62 1017.09 1016.55 1016.00 1015.47 1014.96 1014.50 1014.13 1012.68 1011.77 1010.75 1008.03 1004.99 1004.58 1003.82 1003.82 1003.84 1003.37 1003.30 1003.05 1002.92 1002.73 1002.46 1002.95 1003.01 1002.39 1001.69 1001.09 1000.87 1000.76 1000.49 999.83 999.79 999.58 999.15 998.60 998.49 997.77 997.21 996.88 997.03 997.13 997.03 997.01
1018.99 1018.53 1018.09 1017.63 1017.13 1016.60 1016.07 1015.58 1015.18 1014.79 1014.45 1013.21 1012.70 1011.60 1009.01 1006.38 1005.14 1004.52 1004.18 1003.83 1003.67 1003.63 1003.61 1003.19 1002.93 1003.28 1003.36 1002.78 1001.63 1001.13 1000.85 1000.72 1000.35 1000.63 1000.42 1000.19 999.77 999.09 998.61 998.08 997.56 997.46 997.63 997.40 996.99 996.87 996.92
1018.83 1018.38 1017.97 1017.54 1017.08 1016.59 1016.10 1015.63 1015.24 1014.86 1014.54 1013.50 1012.56 1012.75 1010.74 1008.16 1005.15 1005.22 1004.61 1004.24 1003.53 1003.05 1003.22 1003.20 1003.73 1003.59 1003.19 1002.31 1001.39 1000.67 999.65 999.66 1000.04 1000.65 1000.86 1000.60 1000.57 999.83 998.84 998.18 997.21 997.22 997.48 998.24 997.91 997.36 997.23
1018.57 1018.16 1017.76 1017.36 1016.93 1016.48 1016.03 1015.61 1015.24 1014.87 1014.60 1014.12 1012.74 1012.87 1011.45 1008.71 1006.11 1006.03 1004.85 1004.16 1004.07 1003.70 1003.05 1003.49 1003.55 1003.51 1003.39 1001.90 1001.17 1000.62 1000.21 1001.04 1000.23 1000.01 1000.49 1000.62 1000.39 999.69 998.84 998.60 998.07 998.84 999.41 999.63 998.95 999.34 999.52
1018.40 1017.95 1017.52 1017.10 1016.70 1016.24 1015.83 1015.48 1015.17 1014.89 1014.60 1014.23 1012.61 1012.76 1012.05 1009.38 1007.00 1006.36 1005.84 1005.10 1004.40 1004.05 1003.16 1004.13 1003.97 1003.46 1003.02 1002.33 1001.65 1001.15 1001.19 1000.88 1000.95 1000.49 1000.58 1000.30 999.96 999.27 999.43 999.09 999.24 1000.31 1000.55 1000.06 1000.88 1000.88 1000.70
1018.16 1017.68 1017.21 1016.79 1016.36 1015.97 1015.59 1015.25 1014.94 1014.73 1014.54 1014.34 1012.72 1012.67 1012.55 1011.26 1007.70 1007.05 1006.39 1005.84 1005.44 1004.75 1004.12 1004.03 1003.94 1003.65 1003.05 1002.81 1002.62 1002.44 1001.97 1002.02 1001.20 1000.41 1001.59 1001.26 1000.66 1000.43 1000.27 1000.10 1001.40 1001.61 1001.64 1002.08 1001.72 1001.64 1001.72
Thickness
5669 5671 5672 5674 5676 5678 5682 5685 5689 5694 5699 5704 5709 5714 5720 5727 5734 5739 5745 5751 5756 5760 5764 5769 5773 5777 5788 5797 5813 5833 5835 5837 5840 5838 5835 5836 5833 5833 5824 5829 5835 5831 5834 5842 5848 5845 5843
5665 5666 5667 5668 5670 5672 5675 5679 5682 5687 5692 5697 5702 5708 5714 5720 5727 5735 5742 5747 5752 5757 5763 5767 5771 5775 5789 5792 5830 5832 5834 5835 5839 5837 5837 5839 5835 5837 5830 5827 5825 5832 5834 5839 5844 5842 5843
5661 5661 5663 5664 5664 5666 5669 5672 5676 5680 5685 5690 5695 5701 5708 5714 5721 5729 5736 5744 5750 5757 5763 5766 5769 5778 5789 5808 5829 5831 5835 5836 5839 5840 5832 5840 5842 5834 5834 5822 5834 5832 5823 5834 5835 5837 5833
5657 5658 5658 5660 5661 5662 5664 5666 5669 5673 5678 5683 5689 5695 5701 5708 5716 5723 5731 5739 5747 5756 5761 5764 5768 5780 5795 5823 5825 5827 5834 5830 5836 5840 5839 5840 5841 5834 5829 5834 5829 5821 5825 5810 5829 5831 5833
5654 5654 5655 5655 5657 5659 5661 5662 5664 5667 5670 5675 5682 5688 5695 5701 5709 5718 5727 5736 5744 5751 5756 5761 5772 5780 5797 5818 5815 5830 5833 5825 5830 5834 5835 5835 5833 5826 5827 5813 5809 5817 5809 5803 5812 5832 5828
5649 5650 5650 5651 5653 5654 5656 5658 5659 5661 5663 5668 5674 5681 5688 5695 5703 5712 5722 5732 5740 5746 5754 5762 5771 5772 5803 5807 5820 5825 5831 5829 5822 5823 5817 5817 5819 5812 5817 5813 5794 5800 5803 5806 5806 5821 5822
5645 5645 5645 5647 5648 5650 5652 5653 5654 5657 5658 5661 5667 5674 5681 5689 5696 5704 5718 5736 5744 5750 5759 5786 5790 5792 5800 5814 5821 5818 5826 5821 5821 5815 5799 5809 5798 5796 5814 5816 5813 5810 5802 5802 5813 5822 5818
5640 5641 5641 5643 5644 5646 5647 5648 5650 5651 5654 5656 5661 5667 5674 5683 5690 5696 5706 5734 5749 5750 5764 5782 5784 5785 5797 5805 5799 5810 5824 5806 5803 5794 5808 5795 5790 5818 5816 5810 5808 5806 5802 5807 5813 5822 5819
5635 5637 5638 5640 5641 5643 5644 5644 5645 5646 5648 5652 5655 5661 5668 5676 5685 5694 5714 5732 5742 5749 5757 5774 5785 5786 5793 5798 5801 5802 5813 5811 5801 5797 5796 5795 5806 5819 5806 5801 5799 5808 5803 5799 5799 5817 5826
5632 5634 5635 5637 5638 5640 5641 5641 5642 5642 5644 5647 5651 5656 5663 5671 5680 5701 5713 5727 5734 5741 5752 5768 5773 5787 5790 5799 5790 5819 5820 5809 5800 5794 5799 5803 5824 5808 5801 5799 5805 5798 5811 5805 5804 5803 5799
5628 5630 5632 5634 5635 5637 5638 5638 5638 5639 5640 5643 5648 5653 5658 5663 5681 5696 5711 5719 5730 5733 5734 5769 5770 5798 5797 5790 5801 5793 5819 5806 5792 5798 5798 5799 5803 5798 5796 5803 5812 5798 5812 5806 5806 5804 5810
5626 5628 5630 5631 5633 5634 5635 5635 5635 5636 5637 5641 5646 5650 5655 5664 5672 5694 5701 5712 5722 5720 5731 5756 5774 5773 5773 5787 5793 5794 5793 5807 5813 5796 5797 5807 5821 5814 5811 5816 5809 5815 5803 5806 5810 5809 5791
5623 5625 5627 5629 5631 5632 5633 5633 5633 5634 5637 5641 5646 5651 5654 5669 5688 5689 5696 5709 5711 5726 5763 5754 5764 5776 5780 5777 5782 5787 5783 5782 5781 5768 5773 5793 5796 5812 5817 5802 5809 5802 5796 5783 5782 5790 5793
5621 5623 5625 5627 5629 5631 5632 5633 5634 5636 5638 5642 5647 5653 5658 5668 5675 5682 5695 5704 5707 5743 5757 5772 5775 5776 5771 5782 5783 5784 5780 5777 5793 5797 5789 5774 5767 5800 5813 5806 5798 5797 5805 5789 5767 5784 5805
5620 5621 5623 5625 5628 5630 5632 5634 5635 5638 5641 5645 5649 5660 5663 5672 5673 5679 5695 5699 5725 5740 5752 5761 5767 5762 5767 5778 5782 5777 5779 5784 5793 5801 5785 5781 5784 5818 5815 5814 5813 5800 5784 5823 5802 5808 5790
5618 5620 5622 5624 5627 5630 5632 5634 5636 5640 5644 5649 5664 5672 5672 5669 5672 5682 5695 5702 5720 5734 5747 5757 5758 5771 5759 5769 5770 5776 5774 5794 5792 5801 5813 5795 5778 5802 5808 5811 5813 5802 5821 5786 5798 5766 5765
5616 5619 5621 5623 5627 5629 5631 5634 5637 5641 5647 5651 5667 5680 5667 5669 5673 5688 5693 5712 5718 5736 5742 5748 5754 5761 5776 5770 5776 5775 5780 5792 5801 5797 5803 5799 5793 5788 5800 5791 5794 5790 5791 5799 5811 5803 5781
5615 5617 5619 5622 5626 5629 5631 5635 5637 5641 5648 5652 5677 5681 5667 5671 5680 5699 5703 5711 5700 5731 5745 5747 5754 5764 5772 5777 5774 5779 5780 5790 5805 5805 5781 5798 5793 5781 5786 5813 5820 5817 5808 5814 5788 5785 5799
5613 5615 5618 5621 5625 5628 5632 5635 5638 5641 5644 5656 5683 5677 5673 5676 5684 5693 5707 5709 5718 5726 5738 5745 5751 5763 5771 5772 5763 5780 5785 5799 5797 5797 5788 5795 5778 5766 5777 5793 5800 5792 5805 5809 5815 5818 5787
5612 5614 5617 5621 5624 5628 5632 5635 5639 5643 5646 5653 5680 5682 5679 5682 5694 5698 5700 5708 5713 5733 5735 5745 5750 5761 5763 5765 5775 5770 5777 5783 5791 5796 5791 5793 5788 5779 5772 5784 5800 5782 5795 5805 5806 5793 5801
5611 5614 5617 5620 5623 5627 5631 5635 5640 5645 5649 5656 5686 5691 5691 5689 5694 5701 5704 5708 5713 5721 5736 5745 5749 5752 5759 5757 5766 5770 5782 5776 5779 5772 5784 5787 5769 5782 5788 5798 5802 5800 5798 5801 5791 5802 5793
5611 5614 5616 5619 5622 5625 5629 5634 5639 5646 5654 5669 5677 5683 5693 5697 5698 5700 5692 5711 5714 5725 5729 5737 5738 5752 5758 5755 5767 5766 5776 5780 5777 5775 5778 5789 5770 5781 5773 5791 5792 5782 5795 5801 5798 5799 5801
5611 5614 5616 5618 5621 5624 5628 5632 5636 5642 5654 5668 5668 5675 5679 5685 5702 5701 5709 5710 5715 5719 5730 5735 5738 5743 5747 5755 5758 5764 5777 5780 5784 5777 5773 5777 5773 5766 5759 5788 5787 5766 5788 5798 5800 5808 5806
5612 5614 5615 5617 5620 5623 5626 5629 5632 5635 5637 5648 5653 5659 5677 5696 5698 5702 5704 5706 5710 5715 5716 5727 5734 5733 5739 5751 5759 5765 5771 5772 5772 5774 5787 5769 5769 5774 5765 5770 5737 5792 5820 5815 5805 5813 5823
5613 5614 5615 5617 5619 5621 5624 5627 5629 5631 5633 5643 5645 5653 5671 5683 5694 5696 5700 5704 5710 5713 5710 5719 5729 5734 5741 5743 5744 5742 5748 5752 5762 5767 5770 5777 5772 5764 5757 5761 5783 5789 5795 5797 5797 5801 5826
5614 5615 5616 5617 5619 5620 5622 5625 5627 5629 5631 5639 5645 5642 5656 5669 5692 5691 5692 5699 5703 5709 5710 5716 5722 5732 5736 5736 5737 5724 5738 5755 5742 5746 5763 5767 5765 5761 5764 5750 5752 5795 5807 5811 5813 5785 5823
5616 5617 5618 5619 5620 5622 5623 5624 5625 5627 5629 5632 5642 5639 5649 5664 5689 5684 5689 5695 5702 5704 5707 5708 5711 5715 5726 5727 5726 5728 5733 5737 5731 5739 5738 5741 5746 5746 5761 5756 5779 5785 5790 5797 5768 5779 5797
5618 5619 5620 5621 5622 5624 5624 5625 5625 5625 5627 5629 5641 5637 5642 5661 5678 5682 5686 5687 5695 5697 5699 5697 5701 5708 5712 5709 5718 5725 5722 5733 5730 5744 5738 5739 5739 5750 5754 5751 5746 5774 5775 5771 5771 5782 5787
5620 5621 5623 5623 5624 5625 5626 5626 5627 5626 5626 5626 5638 5636 5635 5641 5670 5676 5681 5689 5690 5695 5696 5698 5696 5700 5711 5706 5710 5712 5713 5717 5727 5724 5731 5720 5740 5739 5744 5750 5751 5760 5762 5767 5774 5772 5774